Location: Newark
(18.4314°N, 64.6231°W)
Time: 00:16:33
(UTC+00:00)

OTV 5 (USA 277) - Pass Details

Date: 29 July 2019
Orbit: 305 x 329 km, 54.5° (Epoch: 20 August)

Event Time Altitude Azimuth Distance (km) Brightness Sun altitude
Exits shadow 09:06:45 19° 219° (SW) 818 ? -11.5°
Maximum altitude 09:08:29 80° 305° (NW) 311 ? -11.1°
Drops below altitude 10° 09:11:05 10° 33° (NNE) 1,176 ? -10.5°
Sets 09:13:02 0° 34° (NE) 1,999 ? -10.1°
